Regional Weather Roundup
Issued by NWS

Home | Current Version | Previous Version | Graphics & Text | Print | Product List | Glossary On
Versions: 1 2 3 4 5 6 7 8 9 10 11 12 13 14 15 16 17 18 19 20 21 22 23 24 25 26 27 28 29 30 31 32 33 34 35 36 37 38 39 40 41 42 43 44 45 46 47 48 49 50
000
ASUS43 KDMX 211201
RWRIA

WEATHER ROUNDUP FOR IOWA
NATIONAL WEATHER SERVICE DES MOINES IA
700 AM CDT FRI JUL 21 2017

NOTE: "FAIR" INDICATES FEW OR NO CLOUDS BELOW 12,000 FEET WITH NO
SIGNIFICANT WEATHER AND/OR OBSTRUCTIONS TO VISIBILITY.

* - THESE STATIONS ARE NOT NWS STATIONS...THUS NOT UNDER NWS
QUALITY CONTROL.  THEY ALSO DO NOT REPORT WEATHER SUCH
AS PRECIPITATION OR FOG.

IAZ001>003-012>014-020>022-031>034-043>046-211300-
   NORTHWEST IOWA

CITY           SKY/WX    TMP DP  RH WIND       PRES   REMARKS
CARROLL *      PTCLDY    75  68  78 MISG      29.85S
CHEROKEE *     RAIN      73  73  97 SE5       29.86F
DENISON *      LGT RAIN  75  72  88 SE7       29.88S
ORANGE CITY *  RAIN      72  70  94 S6        29.86R
SHELDON *      CLOUDY    73  70  88 S5G13     29.81R
SIOUX CITY     MOCLDY    73  72  96 SE5       29.82F
6HR MIN TEMP:  73; 6HR MAX TEMP:  76; 6HR PCP:  0.09;

SPENCER        CLOUDY    74  70  87 S8        29.86S
6HR MIN TEMP:  72; 6HR MAX TEMP:  76; 6HR PCP: TRACE;

STORM LAKE *   CLOUDY    72  70  94 SE7       29.89F
$$

IAZ055>058-069>071-079>083-090>094-211300-
   SOUTHWEST IOWA

CITY           SKY/WX    TMP DP  RH WIND       PRES   REMARKS
ATLANTIC *     CLOUDY    81  73  78 CALM      29.89S HX  85
AUDUBON *      RAIN      73  70  88 SW5       29.90F
CLARINDA *     CLEAR     77  73  88 S7        29.91S
COUNCIL BLFS * CLEAR     81  72  74 S8        29.86R HX  84
CRESTON *      CLOUDY    77  73  88 S9        29.92F
HARLAN  *      MOCLDY    75  73  94 SE5       29.91S
LAMONI         CLOUDY    77  75  93 S7        29.93S
6HR MIN TEMP:  77; 6HR MAX TEMP:  83;

RED OAK *      CLEAR     77  73  88 S5        29.88R
SHENANDOAH *   CLEAR     77  73  88 MISG      29.88S
$$

IAZ047>049-059>061-072>074-084-211300-
   CENTRAL IOWA

CITY           SKY/WX    TMP DP  RH WIND       PRES   REMARKS
AMES           CLOUDY    73  73 100 MISG      29.88F
6HR MIN TEMP:  71; 6HR MAX TEMP:  73;

ANKENY *       CLOUDY    75  72  88 S5        29.89F
BOONE *        CLOUDY    73  72  94 VRB5      29.88F
CHARITON *     CLOUDY    81  75  83 S8        29.91S HX  86
DES MOINES     CLOUDY    76  73  91 S7        29.89S
6HR MIN TEMP:  75; 6HR MAX TEMP:  77; 6HR PCP: TRACE;

GRINNELL*      CLOUDY    72  69  91 SE7       29.94R
KNOXVILLE *    CLOUDY    75  72  88 SE7       29.90S
MARSHALLTOWN   CLOUDY    72  71  97 E13       29.92R
6HR MIN TEMP:  70; 6HR MAX TEMP:  72; 6HR PCP:  0.01;

NEWTON *       MOSUNNY   73  72  94 SE7       29.92R
PELLA *        CLOUDY    74  70  88 SE6       29.92S
$$

IAZ004>006-015-016-023>025-035-036-211300-
   NORTH CENTRAL IOWA

CITY           SKY/WX    TMP DP  RH WIND       PRES   REMARKS
ALGONA *       CLOUDY    73  72  94 S10       29.89R
CLARION *      CLOUDY    73  72  94 S9        29.89R
ESTHERVILLE    CLOUDY    71  71 100 SE5       29.90R
6HR MIN TEMP:  70; 6HR MAX TEMP:  73;

FORT DODGE *   PTCLDY    73  68  83 S7        29.88S
MASON CITY     CLOUDY    71  70  96 SE8       29.91R
6HR MIN TEMP:  70; 6HR MAX TEMP:  73;

FOREST CITY *    N/A     72  72 100 SE7       29.89R
WEBSTER CITY * CLOUDY    73  70  88 S7        29.86S
IOWA FALLS *   PTSUNNY   72  70  94 E8        29.92R
$$

IAZ007>011-017>019-026>030-037>042-050>054-066-211300-
   NORTHEAST IOWA

CITY           SKY/WX    TMP DP  RH WIND       PRES   REMARKS
CEDAR RAPIDS   CLOUDY    72  72 100 NE6       29.95R
6HR MIN TEMP:  71; 6HR MAX TEMP:  72; 6HR PCP:  0.11;

CHARLES CITY * CLOUDY    72  72 100 SE10      29.92S
CLINTON *      CLOUDY    72  71  97 CALM      29.96F
DECORAH *      CLOUDY    68  68 100 SE6       29.95R
DUBUQUE        CLOUDY    70  68  93 SW6       29.97S
6HR MIN TEMP:  70; 6HR MAX TEMP:  74;

MONTICELLO *   RAIN      72  70  94 VRB5      29.98R
OELWEIN *      CLOUDY    70  70 100 NW12      29.93F
WATERLOO       CLOUDY    74  68  81 SE12      29.91S
6HR MIN TEMP:  71; 6HR MAX TEMP:  76;

$$

IAZ064-065-067-068-078-211300-
   EAST CENTRAL IOWA

CITY           SKY/WX    TMP DP  RH WIND       PRES   REMARKS
DAVENPORT      LGT RAIN  72  70  93 S8        29.97F
6HR MIN TEMP:  70; 6HR MAX TEMP:  72; 6HR PCP:  0.11;

IOWA CITY      MOSUNNY   74  71  91 SE5       29.96S
6HR MIN TEMP:  73; 6HR MAX TEMP:  74; 6HR PCP:  0.40;

MUSCATINE *    CLOUDY    73  72  94 SE5       29.97R
QUAD CITIES    LGT RAIN  73  69  87 E3        29.95F
6HR MIN TEMP:  72; 6HR MAX TEMP:  75; 6HR PCP:  0.34;

$$

IAZ062-063-075>077-085>089-095>099-211300-
   SOUTHEAST IOWA

CITY           SKY/WX    TMP DP  RH WIND       PRES   REMARKS
BURLINGTON     MOSUNNY   76  72  87 SE10      29.96S
6HR MIN TEMP:  76; 6HR MAX TEMP:  79;

FAIRFIELD *    CLOUDY    75  70  83 S9        29.94S
FORT MADISON * CLOUDY    77  72  83 SE9       29.97F
KEOKUK *       CLOUDY    79  73  83 SE6       29.96S HX  82
OSKALOOSA *      N/A     73  69  89 SE6       29.93S
OTTUMWA        CLOUDY    76  71  85 SE9       29.92F
6HR MIN TEMP:  73; 6HR MAX TEMP:  78; 6HR PCP: TRACE;

WASHINGTON *     N/A     72  72 100 S7        29.96S
$$

ABBREVIATIONS USED IN REMARKS
   TC - TEMPERATURES IN CELSIUS
  WCI - WIND CHILL INDEX
   HX - HEAT INDEX
  VSB - VISIBILITY
$$





USA.gov is the U.S. government's official web portal to all federal, state and local government web resources and services.